1326672034376,19.9069
1326672094376,19.8603
1326672154376,19.8715
1326672214376,19.9240
1326672274376,19.8831
1326672334376,19.8950
1326672394376,19.8913
1326672454376,19.8797
1326672514376,19.9228
1326672574376,19.8700
1326672634376,19.9014
1326672694376,19.8741
1326672754376,19.8778
1326672814376,19.8138
1326672874376,19.8731
1326672934376,19.8429
1326672994376,19.8663
1326673054376,19.9712
1326673114376,19.9571
1326673174376,19.9456
1326673234376,19.9873
1326673294376,19.9276
1326673354376,19.9030
1326673414376,19.8589
1326673474376,19.9264
1326673534376,19.9288
1326673594376,19.8711
1326673654376,19.8754
1326673714376,19.9753
1326673774376,19.9476
1326673834376,19.9503
1326673894376,19.9934
1326673954376,19.9680
1326674014376,19.9841
1326674074376,20.0021
1326674134376,19.9888
1326674194376,19.9974
1326674254376,19.9685
1326674314376,20.0354
1326674374376,19.9865
1326674434376,20.0021
1326674494376,20.0024
1326674554376,20.0467
1326674614376,20.0030
1326674674376,20.0517
1326674734376,20.0484
1326674794376,20.0311
1326674854376,19.9889
1326674914376,20.0173
1326674974376,19.9974
1326675034376,20.0220
1326675094376,20.0504
1326675154376,20.0672
1326675214376,20.0607
1326675274376,20.0066
1326675334376,20.0521
1326675394376,20.0176
1326675454376,19.9728
1326675514376,20.0684
1326675574376,19.9322
1326675634387,19.9733
1326675694387,19.9842
1326675754387,19.9371
1326675814387,19.9527
1326675874387,19.9730
1326675934387,19.9923
1326675994387,19.9682
1326676054387,19.9885
1326676114387,19.9907
1326676174387,20.0132
1326676234387,19.9858
1326676294387,19.9474
1326676354387,19.9835
1326676414387,20.0304
1326676474387,19.9965
1326676534387,19.9746
1326676594387,20.0301
1326676654387,20.0404
1326676714387,20.0682
1326676774387,19.9951
1326676834387,19.9934
1326676894387,20.0358
1326676954387,20.0439
1326677014387,20.0194
1326677074387,20.0230
1326677134387,20.0406
1326677194387,20.0145
1326677254387,20.0103
1326677314387,19.9918
1326677374387,19.9565
1326677434387,19.9982
1326677494387,19.9140
1326677554387,20.0121
1326677614387,20.0005
1326677674387,19.9358
1326677734387,19.9788
1326677794387,19.9561
1326677854387,19.9950
1326677914387,19.9542
1326677974387,19.9272
1326678034387,19.9355
1326678094387,19.9423
1326678154387,19.9253
1326678214387,19.9542
1326678274387,19.8516
1326678334387,19.9253
1326678394387,19.9475
1326678454387,19.9206
1326678514387,19.9148
1326678574387,19.8850
1326678634387,19.9383
1326678694387,19.9397
1326678754387,19.9091
1326678814387,19.9344
1326678874387,19.9130
1326678934387,19.8856
1326678994387,19.9620
1326679054387,19.9177
1326679114387,19.9122
1326679174387,20.0210
1326679234398,19.9780
1326679294398,19.9447
1326679354398,20.0184
1326679414398,20.1013
1326679474398,19.9944
1326679534397,19.9802
1326679594397,20.0453
1326679654397,19.9855
1326679714397,19.9671
1326679774397,19.9813
1326679834397,19.9604
1326679894397,19.9643
1326679954397,19.8999
1326680014397,20.0552
1326680074397,19.9500
1326680134397,19.9068
1326680194397,19.9848
1326680254397,20.0115
1326680314397,19.9608
1326680374397,19.9332
1326680434397,19.9149
1326680494397,19.9281
1326680554398,19.9466
1326680614398,19.9283
1326680674398,19.9291
1326680734398,19.9404
1326680794398,19.9143
1326680854398,19.9172
1326680914397,19.9290
1326680974397,19.9801
1326681034397,19.9543
1326681094397,19.9938
1326681154397,19.9443
1326681214397,19.9976
1326681274397,19.9811
1326681334397,19.9787
1326681394397,19.9740
1326681454397,20.0069
1326681514397,19.9595
1326681574397,19.9885
1326681634397,19.9623
1326681694397,19.9917
1326681754397,19.8995
1326681814397,19.9221
1326681874397,19.9472
1326681934398,19.9722
1326681994398,20.0133
1326682054398,19.9956
1326682114398,20.0086
1326682174398,19.9402
1326682234397,19.9603
1326682294397,19.9591
1326682354397,19.9461
1326682414397,19.9645
1326682474397,19.9475
1326682534397,19.8642
1326682594397,19.9664
1326682654397,19.9410
1326682714397,19.9535
1326682774397,19.9369
1326682834408,19.9618
1326682894408,19.9657
1326682954408,20.0303
1326683014408,19.9970
1326683074408,20.0107
1326683134408,19.9943
1326683194408,19.9551
1326683254408,19.9897
1326683314408,19.9652
1326683374408,19.9263
1326683434408,20.0182
1326683494408,19.9893
1326683554408,20.0362
1326683614408,19.9718
1326683674408,19.9702
1326683734408,19.9701
1326683794408,20.0417
1326683854408,19.9898
1326683914408,20.0215
1326683974408,20.0629
1326684034408,20.0196
1326684094408,20.0397
1326684154408,20.0717
1326684214408,20.0156
1326684274408,20.0506
1326684334408,20.0699
1326684394408,20.0369
1326684454408,20.0612
1326684514408,19.9945
1326684574408,20.0148
1326684634408,20.0988
1326684694408,20.0483
1326684754408,20.1284
1326684814408,20.0811
1326684874408,20.0466
1326684934408,20.0885
1326684994408,20.0724
1326685054408,20.0359
1326685114408,20.0462
1326685174408,20.0152
1326685234408,20.0142
1326685294408,20.0481
1326685354408,20.0759
1326685414408,20.0755
1326685474408,20.0276
1326685534408,20.0471
1326685594408,20.0703
1326685654408,20.0692
1326685714408,20.0784
1326685774408,20.0485
1326685834408,20.0586
1326685894408,20.0668
1326685954408,20.0447
1326686014408,20.0754
1326686074408,20.0589
1326686134408,20.0008
1326686194408,20.0797
1326686254408,20.0342
1326686314408,19.9797
1326686374408,19.9864
1326686434419,20.0157
1326686494419,20.0058
1326686554419,19.9790
1326686614419,20.0054
1326686674419,20.0072
1326686734419,20.0091
1326686794419,20.0086
1326686854419,19.9972
1326686914419,20.0159
1326686974419,20.0367
1326687034419,20.0704
1326687094419,20.0597
1326687154419,20.0602
1326687214419,20.0197
1326687274419,20.0340
1326687334419,20.0306
1326687394419,20.0518
1326687454419,20.0261
1326687514419,20.0120
1326687574419,20.0525
1326687634419,20.0239
1326687694419,20.0521
1326687754419,20.0475
1326687814419,20.0798
1326687874419,20.0360
1326687934419,20.0914
1326687994419,19.9842
1326688054419,19.9955
1326688114419,20.0569
1326688174419,19.9819
1326688234419,20.0546
1326688294419,19.9861
1326688354419,19.9997
1326688414419,20.0077
1326688474419,19.9977
1326688534419,20.0110
1326688594419,19.9798
1326688654419,19.9867
1326688714419,19.9775
1326688774419,19.9583
1326688834419,19.9952
1326688894419,20.0306
1326688954419,20.0729
1326689014419,20.0048
1326689074419,20.0548
1326689134419,20.0130
1326689194419,19.9415
1326689254419,20.0228
1326689314419,19.9906
1326689374419,20.0158
1326689434419,20.0358
1326689494419,20.0882
1326689554419,20.0323
1326689614419,20.1018
1326689674419,20.0202
1326689734419,20.0839
1326689794419,20.0488
1326689854419,20.0711
1326689914419,20.0547
1326689974419,20.0420
1326690034430,20.0633
1326690094430,20.0387
1326690154430,20.0671
1326690214430,20.0786
1326690274430,20.0801
1326690334430,20.0705
1326690394430,20.0719
1326690454430,20.1180
1326690514430,20.1127
1326690574430,20.1022
1326690634430,20.1147
1326690694430,20.1655
1326690754430,20.1039
1326690814430,20.1011
1326690874430,20.1686
1326690934430,20.1417
1326690994430,20.1638
1326691054430,20.1275
1326691114430,20.1607
1326691174430,20.2044
1326691234430,20.1763
1326691294430,20.1877
1326691354430,20.1592
1326691414430,20.1835
1326691474430,20.1737
1326691534430,20.1141
1326691594430,20.1500
1326691654430,20.1570
1326691714430,20.1426
1326691774430,20.1456
1326691834430,20.1702
1326691894430,20.1118
1326691954430,20.1715
1326692014430,20.2877
1326692074430,20.1585
1326692134430,20.1163
1326692194430,20.1125
1326692254430,20.1365
1326692314430,20.0773
1326692374430,20.0878
1326692434430,20.1373
1326692494430,20.1272
1326692554430,20.1367
1326692614430,20.1896
1326692674430,20.1837
1326692734430,20.1890
1326692794430,20.2161
1326692854430,20.2305
1326692914430,20.1418
1326692974430,20.1757
1326693034430,20.1419
1326693094430,20.1293
1326693154430,20.1429
1326693214430,20.1577
1326693274430,20.1707
1326693334430,20.0994
1326693394430,20.1793
1326693454430,20.1778
1326693514430,20.1898
1326693574430,20.1707
1326693634441,20.1934
1326693694441,20.1947
1326693754441,20.1986
1326693814441,20.1541
1326693874441,20.2374
1326693934441,20.1786
1326693994441,20.2081
1326694054441,20.1734
1326694114441,20.2245
1326694174441,20.2431
1326694234441,20.2247
1326694294441,20.1792
1326694354441,20.1828
1326694414441,20.1501
1326694474441,20.2243
1326694534441,20.2244
1326694594441,20.1702
1326694654441,20.1361
1326694714441,20.2366
1326694774441,20.1733
1326694834441,20.1897
1326694894441,20.2069
1326694954441,20.2304
1326695014441,20.2832
1326695074441,20.3039
1326695134441,20.3581
1326695194441,20.3135
1326695254441,20.3273
1326695314441,20.3549
1326695374441,20.2856
1326695434441,20.3083
1326695494441,20.3520
1326695554441,20.2945
1326695614441,20.2850
1326695674441,20.2883
1326695734441,20.2447
1326695794441,20.2614
1326695854441,20.2677
1326695914441,20.2807
1326695974441,20.2593
1326696034441,20.2752
1326696094441,20.2298
1326696154441,20.2809
1326696214441,20.2241
1326696274441,20.2156
1326696334441,20.1756
1326696394441,20.1942
1326696454441,20.1459
1326696514441,20.2158
1326696574441,20.2079
1326696634441,20.2550
1326696694441,20.1964
1326696754441,20.2305
1326696814441,20.2382
1326696874441,20.2305
1326696934441,20.2205
1326696994441,20.2613
1326697054441,20.2562
1326697114441,20.2770
1326697174441,20.3121
1326697234452,20.3458
1326697294452,20.2788
1326697354452,20.3019
1326697414452,20.2945
1326697474452,20.3223
1326697534452,20.2350
1326697594452,20.2238
1326697654452,20.2746
1326697714452,20.2727
1326697774452,20.2414
1326697834452,20.2391
1326697894452,20.2337
1326697954452,20.2580
1326698014452,20.2322
1326698074452,20.2036
1326698134452,20.2925
1326698194452,20.2042
1326698254452,20.2198
1326698314452,20.2034
1326698374452,20.2402
1326698434452,20.2595
1326698494452,20.2642
1326698554452,20.2671
1326698614452,20.2542
1326698674452,20.2827
1326698734452,20.2401
1326698794452,20.2154
1326698854452,20.2723
1326698914452,20.2416
1326698974452,20.3118
1326699034452,20.3037
1326699094452,20.2879
1326699154452,20.2879
1326699214452,20.3110
1326699274452,20.3102
1326699334452,20.3344
1326699394452,20.3819
1326699454452,20.3032
1326699514452,20.2522
1326699574452,20.2640
1326699634452,20.3038
1326699694452,20.2684
1326699754452,20.3082
1326699814452,20.2691
1326699874452,20.2796
1326699934452,20.2520
1326699994452,20.3266
1326700054452,20.2578
1326700114452,20.2704
1326700174452,20.2792
1326700234452,20.2272
1326700294452,20.2085
1326700354452,20.2977
1326700414452,20.2283
1326700474452,20.1959
1326700534452,20.2594
1326700594452,20.2186
1326700654452,20.1668
1326700714452,20.2040
1326700774452,20.2073
1326700834464,20.2285
1326700894464,20.2591
1326700954464,20.1973
1326701014464,20.2025
1326701074464,20.2165
1326701134464,20.2383
1326701194464,20.2303
1326701254464,20.2137
1326701314464,20.2463
1326701374464,20.2635
1326701434464,20.3224
1326701494464,20.3141
1326701554464,20.2693
1326701614464,20.2952
1326701674464,20.3300
1326701734464,20.2723
1326701794464,20.3002
1326701854464,20.2496
1326701914464,20.2740
1326701974464,20.2186
1326702034464,20.2403
1326702094464,20.2456
1326702154464,20.2505
1326702214464,20.2737
1326702274464,20.2856
1326702334464,20.2456
1326702394464,20.2402
1326702454464,20.2353
1326702514464,20.2664
1326702574464,20.1814
1326702634464,20.1919
1326702694464,20.2124
1326702754464,20.3073
1326702814464,20.2998
1326702874464,20.2519
1326702934464,20.2580
1326702994464,20.1918
1326703054464,20.1711
1326703114464,20.2450
1326703174464,20.1943
1326703234464,20.2113
1326703294464,20.2179
1326703354464,20.2069
1326703414464,20.2280
1326703474464,20.2298
1326703534464,20.1894
1326703594464,20.2024
1326703654464,20.1996
1326703714464,20.1805
1326703774464,20.1618
1326703834464,20.1371
1326703894464,20.1352
1326703954464,20.1851
1326704014464,20.1615
1326704074464,20.1553
1326704134464,20.1125
1326704194464,20.1932
1326704254464,20.1210
1326704314464,20.0755
1326704374464,20.1581
1326704434475,20.1402
1326704494475,20.0822
1326704554475,20.1495
1326704614475,20.1128
1326704674475,20.1322
1326704734475,20.1131
1326704794475,20.1647
1326704854475,20.1847
1326704914475,20.1949
1326704974475,20.1982
1326705034475,20.1226
1326705094475,20.1376
1326705154475,20.1472
1326705214475,20.1823
1326705274475,20.1748
1326705334475,20.0933
1326705394475,20.1540
1326705454475,20.1460
1326705514475,20.1367
1326705574475,20.1678
1326705634475,20.1933
1326705694475,20.1584
1326705754475,20.2151
1326705814475,20.2638
1326705874475,20.3025
1326705934475,20.3560
1326705994475,20.3364
1326706054475,20.3489
1326706114475,20.3347
1326706174475,20.3423
1326706234475,20.3200
1326706294475,20.3116
1326706354475,20.2754
1326706414475,20.3142
1326706474475,20.3582
1326706534475,20.4217
1326706594475,20.3449
1326706654475,20.2729
1326706714475,20.2872
1326706774475,20.3101
1326706834475,20.3361
1326706894475,20.2972
1326706954475,20.2846
1326707014475,20.3387
1326707074475,20.2327
1326707134475,20.2336
1326707194475,20.2555
1326707254475,20.2306
1326707314475,20.2406
1326707374475,20.2572
1326707434475,20.2780
1326707494475,20.2610
1326707554475,20.3324
1326707614475,20.3342
1326707674475,20.3612
1326707734475,20.3556
1326707794475,20.3378
1326707854475,20.4033
1326707914475,20.3858
1326707974475,20.4435
1326708034487,20.4111
1326708094487,20.4203
1326708154487,20.3858
1326708214487,20.3080
1326708274487,20.3373
1326708334487,20.2788
1326708394487,20.2981
1326708454487,20.3006
1326708514487,20.3091
1326708574487,20.2850
1326708634487,20.2671
1326708694487,20.2659
1326708754487,20.2111
1326708814487,20.2097
1326708874487,20.2017
1326708934487,20.2775
1326708994487,20.2342
1326709054487,20.2258
1326709114487,20.1766
1326709174487,20.1548
1326709234487,20.1864
1326709294487,20.1856
1326709354487,20.2100
1326709414487,20.2141
1326709474487,20.2057
1326709534487,20.1736
1326709594487,20.2375
1326709654487,20.1945
1326709714487,20.2048
1326709774487,20.1947
1326709834487,20.2349
1326709894487,20.1932
1326709954487,20.2675
1326710014487,20.3099
1326710074487,20.3170
1326710134487,20.3381
1326710194487,20.3627
1326710254487,20.2926
1326710314487,20.3432
1326710374487,20.2889
1326710434487,20.2394
1326710494487,20.3105
1326710554487,20.2938
1326710614487,20.2630
1326710674487,20.3017
1326710734487,20.2732
1326710794487,20.2718
1326710854487,20.2505
1326710914487,20.2460
1326710974487,20.2437
1326711034487,20.2121
1326711094487,20.1766
1326711154487,20.2377
1326711214487,20.2237
1326711274487,20.2011
1326711334487,20.2094
1326711394487,20.1812
1326711454487,20.2328
1326711514487,20.2116
1326711574487,20.2090
1326711634499,20.2190
1326711694499,20.2225
1326711754499,20.2301
1326711814499,20.2136
1326711874499,20.2275
1326711934499,20.2429
1326711994499,20.2700
1326712054499,20.1896
1326712114499,20.2748
1326712174499,20.2209
1326712234499,20.2757
1326712294499,20.2274
1326712354499,20.2693
1326712414499,20.1761
1326712474499,20.2430
1326712534499,20.2593
1326712594499,20.2117
1326712654499,20.2190
1326712714499,20.1849
1326712774499,20.2445
1326712834499,20.1875
1326712894499,20.1916
1326712954499,20.2050
1326713014499,20.2592
1326713074499,20.2238
1326713134499,20.2338
1326713194499,20.2347
1326713254499,20.2676
1326713314499,20.2074
1326713374499,20.2221
1326713434499,20.2347
1326713494499,20.3313
1326713554499,20.3430
1326713614499,20.3869
1326713674499,20.3270
1326713734499,20.2825
1326713794499,20.2722
1326713854499,20.2622
1326713914499,20.2650
1326713974499,20.2711
1326714034499,20.2192
1326714094499,20.2418
1326714154499,20.2075
1326714214499,20.2355
1326714274499,20.1973
1326714334499,20.1842
1326714394499,20.1754
1326714454499,20.1619
1326714514499,20.2097
1326714574499,20.1620
1326714634499,20.1910
1326714694499,20.1752
1326714754499,20.1904
1326714814499,20.2533
1326714874499,20.1755
1326714934499,20.1544
1326714994499,20.2057
1326715054499,20.2008
1326715114499,20.2688
1326715174499,20.2490
1326715234510,20.2231
1326715294510,20.1920
1326715354510,20.2563
1326715414510,20.2380
1326715474510,20.2212
1326715534510,20.2500
1326715594510,20.2374
1326715654510,20.2497
1326715714510,20.2417
1326715774510,20.2459
1326715834510,20.1732
1326715894510,20.2248
1326715954510,20.2217
1326716014510,20.2261
1326716074510,20.1742
1326716134510,20.2134
1326716194510,20.1570
1326716254510,20.1464
1326716314510,20.1773
1326716374510,20.1591
1326716434510,20.1974
1326716494510,20.2595
1326716554510,20.2333
1326716614510,20.1875
1326716674510,20.1883
1326716734510,20.1107
1326716794510,20.1871
1326716854510,20.1716
1326716914510,20.2146
1326716974510,20.2352
1326717034510,20.2231
1326717094510,20.2476
1326717154510,20.2297
1326717214510,20.2208
1326717274510,20.2386
1326717334510,20.1426
1326717394510,20.1994
1326717454510,20.2015
1326717514510,20.1821
1326717574510,20.1829
1326717634510,20.1469
1326717694510,20.1443
1326717754510,20.1886
1326717814510,20.1357
1326717874510,20.2070
1326717934510,20.2186
1326717994510,20.2511
1326718054510,20.1473
1326718114510,20.2311
1326718174510,20.1907
1326718234510,20.2197
1326718294510,20.2219
1326718354510,20.2091
1326718414510,20.2082
1326718474510,20.2151
1326718534510,20.1921
1326718594510,20.1998
1326718654510,20.2127
1326718714510,20.2276
1326718774510,20.2632
1326718834522,20.3191
1326718894522,20.2325
1326718954522,20.2804
1326719014522,20.2427
1326719074522,20.2966
1326719134522,20.2643
1326719194522,20.2659
1326719254522,20.2566
1326719314522,20.2302
1326719374522,20.2612
1326719434522,20.1785
1326719494522,20.0228
1326720034522,20.2067
1326720094522,20.1835
1326720154522,20.2337
1326720214522,20.2769
1326720274522,20.1937
1326720334522,20.1778
1326720394522,20.1790
1326720454522,20.1962
1326720514522,20.1538
1326720574522,20.1815
1326720634522,20.1922
1326720694522,20.1953
1326720754522,20.1919
1326720814522,20.2589
1326720874522,20.2401
1326720934522,20.2168
1326720994522,20.1879
1326721054522,20.2432
1326721114522,20.2163
1326721174522,20.1966
1326721234522,20.1882
1326721294522,20.1429
1326721354522,20.1924
1326721414522,20.2155
1326721474522,20.2074
1326721534522,20.1694
1326721594522,20.2181
1326721654522,20.1982
1326721714522,20.1850
1326721774522,20.2036
1326721834522,20.1994
1326721894522,20.2053
1326721954522,20.2042
1326722014522,20.2205
1326722074522,20.2686
1326722134522,20.2865
1326722194522,20.2992
1326722254522,20.2910
1326722314522,20.2849
1326722374522,20.1815
1326722434534,20.2131
1326722494534,20.1940
1326722554534,20.2269
1326722614534,20.2389
1326722674534,20.2747
1326722734534,20.2414
1326722794534,20.2123
1326722854534,20.2835
1326722914534,20.1464
1326722974534,20.2031
1326723034534,20.2406
1326723094534,20.2201
1326723154534,20.2262
1326723214534,20.2727
1326723274534,20.1786
1326723334534,20.2563
1326723394534,20.2249
1326723454534,20.2247
1326723514534,20.2402
1326723574534,20.2250
1326723634534,20.2088
1326723694534,20.2772
1326723754534,20.2627
1326723814534,20.2994
1326723874534,20.3028
1326723934534,20.3054
1326723994534,20.3232
1326724054534,20.2658
1326724114534,20.2514
1326724174534,20.2954
1326724234534,20.2110
1326724294534,20.1973
1326724354534,20.2469
1326724414534,20.1776
1326724474534,20.1878
1326724534534,20.2219
1326724594534,20.2766
1326724654534,20.2295
1326724714534,20.2546
1326724774534,20.2326
1326724834534,20.2851
1326724894534,20.2752
1326724954534,20.2015
1326725014534,20.2614
1326725074534,20.2540
1326725134534,20.2402
1326725194534,20.2207
1326725254534,20.2226
1326725314534,20.1951
1326725374534,20.2533
1326725434534,20.1603
1326725494534,20.2021
1326725554534,20.2001
1326725614534,20.2077
1326725674534,20.1884
1326725734534,20.1693
1326725794534,20.1914
1326725854534,20.1607
1326725914534,20.1517
1326725974534,20.1468
1326726034545,20.1565
1326726094545,20.2118
1326726154545,20.2626
1326726214545,20.2322
1326726274545,20.2489
1326726334545,20.2115
1326726394545,20.2008
1326726454545,20.2007
1326726514545,20.2330
1326726574545,20.3230
1326726634545,20.2802
1326726694545,20.2497
1326726754545,20.2784
1326726814545,20.2577
1326726874545,20.3207
1326726934545,20.3335
1326726994545,20.2814
1326727054545,20.2759
1326727114545,20.2861
1326727174545,20.2640
1326727234545,20.2648
1326727294545,20.2722
1326727354545,20.3158
1326727414545,20.2639
1326727474545,20.2685
1326727534545,20.2811
1326727594545,20.3299
1326727654545,20.2382
1326727714545,20.2015
1326727774545,20.2192
1326727834545,20.2524
1326727894545,20.2717
1326727954545,20.2708
1326728014545,20.2663
1326728074545,20.2733
1326728134545,20.2343
1326728194545,20.1792
1326728254545,20.2407
1326728314545,20.2314
1326728374545,20.1943
1326728434545,20.1930
1326728494545,20.2103
1326728554545,20.1398
1326728614545,20.2012
1326728674545,20.2530
1326728734545,20.1536
1326728794545,20.2246
1326728854545,20.2663
1326728914545,20.2234
1326728974545,20.2340
1326729034545,20.2033
1326729094545,20.2488
1326729154545,20.2632
1326729214545,20.2008
1326729274545,20.2313
1326729334545,20.1986
1326729394545,20.2348
1326729454545,20.2322
1326729514545,20.2446
1326729574545,20.2407
1326729634557,20.2154
1326729694557,20.2722
1326729754557,20.2649
1326729814557,20.1654
1326729874557,20.2167
1326729934557,20.2387
1326729994557,20.1801
1326730054557,20.2110
1326730114557,20.2161
1326730174557,20.2624
1326730234557,20.1789
1326730294557,20.2324
1326730354557,20.2423
1326730414557,20.2446
1326730474557,20.1820
1326730534557,20.2480
1326730594557,20.2382
1326730654557,20.2639
1326730714557,20.2382
1326730774557,20.1920
1326730834557,20.1927
1326730894557,20.1804
1326730954557,20.1572
1326731014557,20.1727
1326731074557,20.1957
1326731134557,20.2087
1326731194557,20.1796
1326731254557,20.1962
1326731314557,20.2152
1326731374557,20.1593
1326731434557,20.1855
1326731494557,20.2275
1326731554557,20.1538
1326731614557,20.2246
1326731674557,20.2853
1326731734557,20.1733
1326731794557,20.2456
1326731854557,20.1883
1326731914557,20.2896
1326731974557,20.3542
1326732034557,20.2734
1326732094557,20.3083
1326732154557,20.2999
1326732214557,20.2682
1326732274557,20.2946
1326732334557,20.2501
1326732394557,20.2561
1326732454557,20.2607
1326732514557,20.2738
1326732574557,20.2422
1326732634557,20.2594
1326732694557,20.3172
1326732754557,20.2973
1326732814557,20.2327
1326732874557,20.2297
1326732934557,20.2731
1326732994557,20.2232
1326733054557,20.2899
1326733114557,20.2492
1326733174557,20.2640
1326733234568,20.2764
1326733294568,20.2711
1326733354568,20.2397
1326733414568,20.2114
1326733474568,20.2146
1326733534568,20.2050
1326733594568,20.2105
1326733654568,20.2122
1326733714568,20.2010
1326733774568,20.1830
1326733834568,20.1902
1326733894568,20.2147
1326733954568,20.2404
1326734014568,20.2148
1326734074568,20.2429
1326734134568,20.2156
1326734194568,20.1809
1326734254568,20.2098
1326734314568,20.2236
1326734374568,20.1727
1326734434568,20.1808
1326734494568,20.1660
1326734554568,20.1902
1326734614568,20.2070
1326734674568,20.2578
1326734734568,20.2129
1326734794568,20.2579
1326734854568,20.2118
1326734914568,20.2059
1326734974568,20.2362
1326735034568,20.1888
1326735094568,20.1819
1326735154568,20.1884
1326735214568,20.2537
1326735274568,20.2461
1326735334568,20.1662
1326735394568,20.2263
1326735454568,20.2365
1326735514568,20.2877
1326735574568,20.2042
1326735634568,20.2321
1326735694568,20.1493
1326735754568,20.1694
1326735814568,20.1579
1326735874568,20.1913
1326735934568,20.1539
1326735994568,20.2101
1326736054568,20.1670
1326736114568,20.1870
1326736174568,20.2126
1326736234568,20.2293
1326736294568,20.1970
1326736354568,20.1888
1326736414568,20.2293
1326736474568,20.2218
1326736534568,20.1936
1326736594568,20.1636
1326736654568,20.2258
1326736714568,20.1825
1326736774568,20.2601
1326736834580,20.3054
1326736894580,20.3423
1326736954580,20.2566
1326737014580,20.2632
1326737074580,20.2333
1326737134580,20.3074
1326737194580,20.2429
1326737254580,20.2822
1326737314580,20.2633
1326737374580,20.2863
1326737434580,20.2033
1326737494580,20.2454
1326737554580,20.2246
1326737614580,20.2383
1326737674580,20.2082
1326737734580,20.1950
1326737794580,20.2408
1326737854580,20.2383